Location: Ohmer (historical)
(38.0096°N, 122.0227°W)
Time: 02:27:12
(UTC+00:00)

Cosmos 1782 Rocket - Pass Details

Date: 14 February 2026
Orbit: 600 x 625 km, 82.5° (Epoch: 13 March)

Event Time Altitude Azimuth Distance (km) Brightness Sun altitude
Rises 13:43:22 0° 186° (S) 2,873 7.0 -15.5°
Reaches altitude 10° 13:45:34 10° 186° (S) 1,975 6.1 -15.1°
Maximum altitude 13:49:57 89° 252° (WSW) 627 3.5 -14.2°
Drops below altitude 10° 13:54:24 10° 7° (N) 2,001 6.2 -13.3°
Sets 13:56:39 0° 8° (N) 2,914 7.0 -12.9°
